Location: Newark
(50.0306°N, 2.3272°E)
Time: 03:09:31
(UTC+00:00)

Vanguard 2 Rocket - All Passes

Search period start: 16 December 2019 00:00
Search period end: 26 December 2019 00:00
Orbit: 554 x 3326 km, 32.9° (Epoch: 15 December)

Date Brightness Start Highest point End Pass type
(mag) Time Alt. Az. Time Alt. Az. Time Alt. Az.
16 Dec - 14:15:05 10° SSW 14:28:04 23° SSE 14:38:25 10° ESE daylight
16 Dec - 16:28:00 10° SW 16:42:45 34° S 16:52:42 10° ESE visible
16 Dec - 18:44:35 10° WSW 18:56:37 31° SSW 19:04:20 10° SE visible
16 Dec - 21:03:18 10° WSW 21:08:42 15° SW 21:12:55 10° S visible
17 Dec - 13:16:04 10° S 13:27:22 18° SE 13:37:09 10° ESE daylight
17 Dec - 15:26:44 10° SW 15:42:07 32° SSE 15:53:12 10° ESE daylight
17 Dec - 17:42:30 10° WSW 17:56:35 36° S 18:05:41 10° SE visible
17 Dec - 20:00:26 10° WSW 20:09:31 23° SSW 20:15:47 10° SSE visible
18 Dec - 12:19:00 10° SSE 12:26:47 14° SE 12:34:03 10° ESE daylight
18 Dec - 14:26:02 10° SSW 14:41:19 29° SSE 14:53:12 10° ESE daylight
18 Dec - 16:40:34 10° WSW 16:56:12 37° S 17:06:40 10° ESE visible
18 Dec - 18:57:58 10° WSW 19:09:57 30° SSW 19:17:48 10° SE visible
18 Dec - 21:18:54 10° WSW 21:21:40 11° SW 21:24:07 10° SSW visible
19 Dec - 13:26:06 10° SSW 13:40:27 25° SSE 13:52:34 10° ESE daylight
19 Dec - 15:38:58 10° SW 15:55:30 37° S 16:07:17 10° ESE daylight
19 Dec - 17:55:38 10° WSW 18:10:00 36° SSW 18:19:20 10° SE visible
19 Dec - 20:14:32 10° WSW 20:22:35 19° SW 20:28:28 10° S visible
20 Dec - 12:27:13 10° S 12:39:39 20° SE 12:51:00 10° ESE daylight
20 Dec - 14:37:50 10° SW 14:54:34 35° SSE 15:07:28 10° ESE daylight
20 Dec - 16:53:28 10° WSW 17:09:37 39° S 17:20:26 10° ESE visible
20 Dec - 19:11:36 10° WSW 19:23:07 27° SSW 19:30:57 10° SSE visible
21 Dec - 11:30:05 10° SSE 11:39:03 15° SE 11:47:45 10° ESE daylight
21 Dec - 13:37:22 10° SSW 13:53:32 32° SSE 14:07:08 10° ESE daylight
21 Dec - 15:51:37 10° WSW 16:08:52 41° S 16:21:09 10° ESE daylight
21 Dec - 18:08:59 10° WSW 18:23:15 34° SSW 18:32:44 10° SE visible
21 Dec - 20:29:23 10° WSW 20:35:26 15° SW 20:40:17 10° SSW visible
22 Dec - 12:37:41 10° SSW 12:52:32 27° SSE 13:06:08 10° E daylight
22 Dec - 14:50:13 10° SW 15:07:50 40° S 15:21:27 10° ESE daylight
22 Dec - 17:06:38 10° WSW 17:22:55 39° SSW 17:34:00 10° SE visible
22 Dec - 19:25:33 10° W 19:36:06 22° SW 19:43:39 10° S visible
23 Dec - 11:39:03 10° S 11:51:44 22° SE 12:04:11 10° E daylight
23 Dec - 13:49:22 10° SW 14:06:39 38° SSE 14:21:16 10° ESE daylight
23 Dec - 16:04:36 10° WSW 16:22:11 42° S 16:34:50 10° ESE visible
23 Dec - 18:22:35 10° W 18:36:20 30° SSW 18:45:49 10° SSE visible
24 Dec - 10:42:05 10° SSE 10:51:13 15° SE 11:00:34 10° ESE daylight
24 Dec - 12:49:13 10° SSW 13:05:28 33° SSE 13:20:32 10° E daylight
24 Dec - 15:02:59 10° WSW 15:21:05 43° S 15:35:13 10° ESE daylight
24 Dec - 17:20:01 10° WSW 17:36:06 37° SSW 17:47:20 10° SE visible
24 Dec - 19:40:08 10° WSW 19:48:51 18° SW 19:55:35 10° S visible
25 Dec - 11:49:52 10° SSW 12:04:27 28° SSE 12:19:06 10° E daylight
25 Dec - 14:01:54 10° SW 14:19:48 42° S 14:35:08 10° ESE daylight
25 Dec - 16:17:49 10° WSW 16:35:24 41° SSW 16:48:18 10° SE visible
25 Dec - 18:36:30 10° W 18:49:12 25° SW 18:58:27 10° SSE visible
